STARLINK-32480, 62039

Orbit data source: Space-Track

STARLINK-32480, 62039 is a payload satellite owned by SpaceX/Seattle (US) in LEO that was launched on Thu, 21 Nov 2024 UTC via an FALCON 9 launch vehicle from the Air Force Eastern Test Range (AFETR). Payload-class satellites include a variety of spacecraft equipped with specific instruments for various scientific and technological missions. These include communications satellites like Starlink; space stations such as the ISS; scientific satellites like the Hubble; Earth observation satellites from companies like Planet Labs, Umbra, and HawkEye 360; GPS; miniature CubeSats for education and research; and military/defense satellites.

Loading next visibility...
Identifier
62039, 2024-216H
Orbit
LEO
Country
Flag of USUS
Related business
Manufacturer
SpaceX/Seattle
Mission
Operational Commercial Communications
Bus & Motor
STARLINK V2M, Unknown motor
Mass
730 kg wet, ~700 kg dry
Launch date (UTC)
2024-11-21 (11 months ago)
Launch vehicle
FALCON 9
Launch site
Air Force Eastern Test Range (AFETR)
Object type
Payload
Rocket body
Debris
Shape & HBR
Box + 2 Pan, 17.7 m
Radar Cross Section
33.884 m², Large (>1 m²)

Expand to show TLE details & history
Last TLE update: 2 days ago

TLE from 2 days ago
0 STARLINK-32480
1 62039U 24216H   25301.02274199  .00027809  00000-0  10157-2 0  9992
2 62039  43.0049 285.7563 0001159 204.4275 155.6522 15.27599330 52421
Epoch: 2025-10-28T00:32Z
TLE epoch observation values (Epoch: 2025-10-28T00:32:44.907Z)
Latitude
-0.00004°
Longitude
-119.04705°
Altitude
483.492 km
Speed
7.625 km/s
True Right ascension
19h 03m 01s
True Declination
0° 00' 00"
Sunlit
Object was in daylight at epoch
Visualization orbit readout
Latitude
Unknown
Longitude
Unknown
Altitude
Unknown
Speed
Unknown
Apparent Right ascension
Unknown
Apparent Declination
Unknown
Sunlit
N/A
Visualization observer readout
Local Sidereal Time
21:22:20
Azimuth
Unknown
Elevation
Unknown
Doppler factor
Unknown
Orbital elements
Apogee altitude
485.731 km
Perigee altitude
484.14 km
Semi-major axis
6,863.073 km
Eccentricity
0.00012
Inclination
43.0049°
RAAN
285.7563°
Arg. of periapsis
204.4275°
True anomaly
155.65767°
Mean anomaly
155.6522°
Eccentric anomaly
155.65494°
Mean motion
3.81738 °/min
Orbital period
94.31 mins
BSTAR
0.0010157
Loading maneuver chart data...
Computing Atmospheric mass density...
Loading historical data...
Loading historical data...
Loading historical data...
Loading historical data...
Loading historical data...
Loading historical data...
Loading historical data...

Documentation

Showing up to 5 results
|